Location: Newark
(48.5656°N, 1.8592°W)
Time: 18:59:19
(UTC+00:00)

Envisat - Visible Passes

Search period start: 20 November 2019 00:00
Search period end: 30 November 2019 00:00
Orbit: 764 x 766 km, 98.1° (Epoch: 20 November)

Date Brightness Start Highest point End Pass type
(mag) Time Alt. Az. Time Alt. Az. Time Alt. Az.
20 Nov 6.4 05:26:51 10° ENE 05:27:58 11° E 05:29:04 10° E visible
20 Nov 3.6 18:21:12 10° S 18:26:11 59° W 18:31:14 10° NNW visible
21 Nov 4.8 06:26:15 10° NNE 06:30:58 37° E 06:35:38 10° SSE visible
21 Nov 2.9 17:44:22 10° SSE 17:49:24 70° ENE 17:54:29 10° N visible
21 Nov 5.7 19:25:34 10° SW 19:28:57 18° W 19:32:21 10° NW visible
22 Nov 5.9 05:50:21 10° NE 05:53:50 18° E 05:57:18 10° SE visible
22 Nov 3.6 17:08:14 10° SE 17:12:48 35° ENE 17:17:24 10° N visible
22 Nov 4.6 18:47:11 10° SSW 18:51:49 35° W 18:56:29 10° NNW visible
23 Nov 3.7 06:51:31 10° NNE 06:56:35 61° ESE 07:01:36 10° S visible
23 Nov 3.2 18:09:49 10° S 18:14:54 73° WSW 18:20:00 10° NNW visible
23 Nov 6.2 19:54:12 10° W 19:54:50 10° W 19:55:28 10° WNW visible
24 Nov 5.2 06:15:09 10° NNE 06:19:36 30° E 06:24:02 10° SSE visible
24 Nov 3.0 17:33:12 10° SSE 17:38:09 57° ENE 17:43:09 10° N visible
24 Nov 5.4 19:13:40 10° SW 19:17:33 22° W 19:21:27 10° NW visible
25 Nov 6.1 05:39:35 10° NE 05:42:25 15° E 05:45:15 10° ESE visible
25 Nov 3.8 16:57:17 10° ESE 17:01:37 29° ENE 17:05:58 10° N visible
25 Nov 4.2 18:35:39 10° S 18:40:28 44° W 18:45:21 10° NNW visible
26 Nov 4.1 06:40:19 10° NNE 06:45:16 49° E 06:50:11 10° S visible
26 Nov 3.0 17:58:31 10° SSE 18:03:36 89° W 18:08:44 10° NNW visible
26 Nov 6.0 19:41:02 10° WSW 19:43:23 13° W 19:45:43 10° WNW visible
27 Nov 5.5 06:04:06 10° NE 06:08:14 24° E 06:12:20 10° SE visible
27 Nov 3.2 17:22:06 10° SE 17:26:56 46° ENE 17:31:47 10° N visible
27 Nov 5.1 19:01:54 10° SSW 19:06:09 27° W 19:10:27 10° NW visible
28 Nov 6.2 05:29:11 10° ENE 05:30:59 12° E 05:32:46 10° ESE visible
28 Nov 4.0 16:46:24 10° ESE 16:50:27 25° ENE 16:54:30 10° N visible
28 Nov 3.7 18:24:11 10° S 18:29:09 54° W 18:34:09 10° NNW visible
29 Nov 4.6 06:29:09 10° NNE 06:33:56 40° E 06:38:41 10° SSE visible
29 Nov 2.9 17:47:16 10° SSE 17:52:20 75° ENE 17:57:26 10° N visible
29 Nov 5.8 19:28:48 10° SW 19:31:57 16° W 19:35:06 10° NW visible
